Location: ????
(30.1475°N, 31.1342°E)
Time: 09:50:31
(UTC+00:00)

COSMOS 2251 DEB - Pass Details

Date: 05 June 2024
Orbit: 760 x 785 km, 73.9° (Epoch: 19 June)

Event Time Altitude Azimuth Distance (km) Brightness Sun altitude
Rises 23:48:19 0° 10° (N) 3,245 ? -30.5°
Reaches altitude 10° 23:52:52 10° 46° (NE) 2,307 ? -30.0°
Maximum altitude 23:54:12 11° 61° (ENE) 2,241 ? -29.8°
Drops below altitude 10° 23:55:31 10° 76° (ENE) 2,300 ? -29.7°
Sets 00:00:00 0° 112° (ESE) 3,215 ? -29.1°
